STARLINK-1203 (45202 NORAD) Tracking and Keplerian Element Data

This shows tracking and keplerian element data for the satellite.

Feedback or suggestion? Click here.




ElementValue
Catalog45202
NameSTARLINK-1203
Epoch Orbit2141
Epoch Day187.20631144
Epoch Year2020
RAAN354.8018
Inclination52.9852
Eccentricity0.000216
Argument of Perigee108.2314
Mean Anonmoly251.8909
Mean Motion15.05641919
Decay Rate-5.25E-06
L11 45202U 20012AA 20187.20631144 -.00000525 00000-0 -16798-4 0 9996
L22 45202 52.9852 354.8018 0002160 108.2314 251.8909 15.05641919 21416

Live tracking and technical data element details for STARLINK-1203 (NORAD 45202). STARLINK-1203 can be tracked NOW for your location showing map with azimuth and elevation plus other details from your city location.

Track the satellite on the map from your city or location and see movement details for azimuth, elevation, latitude, longitude, range, height, and movement on the map or in text.







IsCatalogInMostPopularTable: catalog: 45202, numindb: 29
Update: records affected: 1



GetName: 45202 STARLINK-1203

Hit Count: updated at: Mon, 06 Jul 2020 05:59:16 GMT